Elmira Corning Regional Airport Elmira,Corning US
ICAO: KELM
IATA: ELM
Category: Medium
Scheduled Services: Yes

Elevation: 954 ft
TransAlt. 18000 ft.

Airport Communications:
APP/DEP:119.45
ATIS:125.475
CLNC DEL:121.9
CTAF:122.4
GND/CLNC DEL:121.9
BUFFALO RDO:122.2
TWR:121.1
UNICOM:122.95

KELM Zoom In..

If you have problems with the map follow the link
https://www.worldairports.se/pages/airport.php?
ICAO=KELM

Runways:

(A) RW 05 length 2017 ft width 150 ft
---- / hdg 62

(B) RW 06 length 8001 ft width 150 ft
ILS 109.10 / hdg 62

(C) RW 10 length 5404 ft width 150 ft
---- / hdg 101

(D) RW 23 length 2017 ft width 150 ft
---- / hdg 242

(E) RW 24 length 8001 ft width 150 ft
ILS 109.10 / hdg 242

(F) RW 28 length 5404 ft width 150 ft
---- / hdg 281

Location; KELM
Day. 19 / Time. 19.53 Zulu
* Altimeter: 30.31
* Temperature: 01° c. 33.8°f.
* Wind from: 310° Speed 10 kn.
Dewpoint: -08° c.
Visibility: 10 Statute Miles.
Clouds: Overcast 4800 ft.

KELM 191953Z 31010KT 10SM OVC048 01/M08 A3031 RMK AO2 SLP273 T00111083


Wind From 310°
Speed 10 kn.

 
 
jpsmedia worldairports.se 2020   terms of use